Regional Weather Roundup
Issued by NWS

Home | Current Version | Previous Version | Text Only | Print | Product List | Glossary On
Versions: 1 2 3 4 5 6 7 8 9 10 11 12 13 14 15 16 17 18 19 20 21 22 23 24 25 26 27 28 29 30 31 32 33 34 35 36 37 38 39 40 41 42 43 44 45 46 47 48 49 50
000
ASUS43 KMPX 181301
RWRMN
WEATHER ROUNDUP FOR MINNESOTA
NATIONAL WEATHER SERVICE TWIN CITIES/CHANHASSEN MN
800 AM CDT FRI AUG 18 2017


NOTE: "FAIR" INDICATES FEW OR NO CLOUDS BELOW 12,000 FEET WITH NO
SIGNIFICANT WEATHER AND/OR OBSTRUCTIONS TO VISIBILITY. N/A MEANS
CURRENT SKY AND/OR WEATHER CONDITIONS ARE NOT AVAILABLE.

MNZ060>063-068>070-181400-
   Twin Cities Metro

CITY           SKY/WX    TMP DP  RH WIND       PRES   REMARKS
TWIN CITIES    CLOUDY    63  59  87 SW6       29.89R
ST PAUL        PTSUNNY   63  62  97 CALM      29.88S
CRYSTAL        CLOUDY    63  58  83 SW6       29.87R
BLAINE         CLOUDY    61  61 100 CALM      29.87S
LAKEVILLE      CLOUDY    61  61 100 CALM      29.89S
EDEN PRAIRIE   CLOUDY    62  59  90 W5        29.88R
SOUTH ST PAUL  CLOUDY    63  61  93 SW3       29.88S
LAKE ELMO      FAIR      63  61  94 CALM      29.88F
$$
MNZ001>005-007-008-013>017-022>024-027-028-181400-
   Northwest Minnesota

CITY           SKY/WX    TMP DP  RH WIND       PRES   REMARKS
BEMIDJI        MOSUNNY   56  55  97 CALM      29.87S
HALLOCK        MOSUNNY   57  57 100 CALM      29.84R
ROSEAU         SUNNY     57  54  88 CALM      29.84R
WARROAD        SUNNY     57  54  88 CALM      29.85R
CROOKSTON      SUNNY     59  57  94 CALM      29.86R
FOSSTON        MOSUNNY   57  57 100 S3        29.87S
DETROIT LAKES  CLOUDY    61  59  94 CALM      29.88S
MOORHEAD       CLOUDY    63  59  88 SE5       29.84S
PARK RAPIDS    CLOUDY    60  57  89 CALM      29.87F
MAHNOMEN       FAIR      58  56  92 SE5       29.86F
$$
MNZ006-009>011-018-025>026-181400-
   North Central Minnesota

CITY           SKY/WX    TMP DP  RH WIND       PRES   REMARKS
BAUDETTE       SUNNY     57  56  96 CALM      29.83S
FLAG ISLAND    SUNNY     64  57  77 CALM      29.81S
INTL FALLS     CLOUDY    55  54  96 CALM      29.83S
WASKISH        CLOUDY    55  55 100 CALM      29.85S
BIG FORK       MOSUNNY   54  54 100 CALM      29.85S FOG
LONGVILLE      CLOUDY    55  55 100 CALM      29.86S FOG
GRAND RAPIDS   MOSUNNY   58  58 100 CALM      29.88S
CRANE LAKE     FOG       54  52  94 CALM      29.86S VSB<1/4
ORR            SUNNY     52  50  93 CALM      29.82S FOG
COOK           FOG       52  52 100 CALM      29.86R VSB 1/4
WALKER         FAIR      57  56  97 W3        29.87S
$$
MNZ012-019>021-037-181400-
   Northeast Minnesota

CITY           SKY/WX    TMP DP  RH WIND       PRES   REMARKS
DULUTH         FOG       55  55 100 NW9       29.84S VSB 3/4
ELY            CLOUDY    57  55  94 NW3       29.84S
HIBBING        PTSUNNY   56  55  97 CALM      29.85S
EVELETH        CLOUDY    58  55  92 CALM      29.87R FOG
DULUTH HARBOR  MOSUNNY   61  57  88 W6        29.84F
TWO HARBORS    CLOUDY    63  57  82 W5        29.82R
GRAND MARAIS     N/A     65  56  72 VRB6      29.77R
G MARAIS ARPRT CLOUDY    57  50  77 N12G20    29.80R
$$
MNZ029>031-032-039>041-046>048-054>057-064-181400-
   West Central Minnesota

CITY           SKY/WX    TMP DP  RH WIND       PRES   REMARKS
FERGUS FALLS   CLOUDY    63  63 100 CALM      29.85F
WHEATON        CLOUDY    63  57  82 CALM      29.87R
MORRIS         CLOUDY    63  61  94 SE5       29.86F
ALEXANDRIA     CLOUDY    63  61  93 SE3       29.90S
ELBOW LAKE     FAIR      61  60  97 E7        29.87S
WADENA         CLOUDY    59  59 100 CALM      29.87S FOG
GLENWOOD       CLOUDY    63  61  94 SW3       29.90S FOG
APPLETON       PTSUNNY   64  61  88 S3        29.87F
BENSON         LGT RAIN  63  61  94 S5        29.90F
ORTONVILLE     CLOUDY    63  57  82 MISG      29.86F
MADISON        LGT RAIN  64  64 100 S6        29.88F
WILLMAR        LGT RAIN  63  61  94 CALM      29.90F
$$
MNZ033>034-036-042>043-049>051-058-059-181400-
   Central Minnesota

CITY           SKY/WX    TMP DP  RH WIND       PRES   REMARKS
ST CLOUD       CLOUDY    58  58 100 CALM      29.88R
SAUK CENTRE    FAIR      60  59  97 CALM      29.89S
PAYNESVILLE    CLOUDY    61  61  99 W6        29.91R
AITKIN         CLOUDY    57  55  94 CALM      29.85S
PINE RIVER     CLOUDY    54  54 100 MISG      29.90F
BRAINERD       CLOUDY    57  56  96 CALM      29.88R FOG
STAPLES        CLOUDY    57  57 100 CALM      29.87S
LONG PRAIRIE   FAIR      59  59 100 CALM      29.90S
LITTLE FALLS   CLOUDY    55  54  94 CALM      29.89R FOG
LITCHFIELD     CLOUDY    64  63  94 W3        29.90F
BUFFALO        PTSUNNY   60  58  92 CALM      29.89S
MAPLE LAKE     CLOUDY    62  61  98 CALM      29.89S
HUTCHINSON     MOSUNNY   63  62  97 W5        29.91F
$$
MNZ037-044-045-052-053-181400-
   East Central Minnesota

CITY           SKY/WX    TMP DP  RH WIND       PRES   REMARKS
PRINCETON      CLOUDY    61  59  94 CALM      29.88R
MORA           CLOUDY    55  55 100 CALM      29.88S
RUSH CITY      CLOUDY    60  58  92 CALM      29.86F
MOOSE LAKE     MOSUNNY   59  55  88 CALM      29.84S
HINCKLEY       FAIR      59  59 100 CALM      29.86R
CLOQUET        CLOUDY    61  55  82 NW5       29.85F
MCGREGOR       CLOUDY    55  54  94 CALM      29.87S
$$
MNZ071>073-080-081-089-090-097-098-181400-
   Southwest Minnesota

CITY           SKY/WX    TMP DP  RH WIND       PRES   REMARKS
MONTEVIDEO     DRIZZLE   61  61 100 SW5       29.89F
GRANITE FALLS  LGT RAIN  63  61  93 SW6       29.91F
CANBY          LGT RAIN  62  60  93 CALM      29.91R
MARSHALL       LGT RAIN  61  60  97 S6        29.92F
REDWOOD FALLS  LGT RAIN  61  58  90 W5        29.91S FOG
OLIVIA         LGT RAIN  61  57  88 W5        29.90S
PIPESTONE      LGT RAIN  61  57  88 CALM      29.96R
WINDOM         LGT RAIN  61  57  88 CALM      29.94R
WORTHINGTON    CLOUDY    60  58  92 CALM      29.95R
JACKSON        LGT RAIN  61  59  94 CALM      29.95R
TRACY          LGT RAIN  61  61 100 CALM      29.94S
SLAYTON        CLOUDY    59  55  86 NW3       29.95R
$$
MNZ065>067-074>077-082>085-091>093-181400-
   South Central Minnesota

CITY           SKY/WX    TMP DP  RH WIND       PRES   REMARKS
MANKATO        LGT RAIN  61  60  97 SW7       29.92R
NEW ULM        RAIN      63  61  94 W5        29.92R
ST JAMES       RAIN      63  61  94 W6        29.95R
FAIRMONT       LGT RAIN  63  61  93 NW7       29.94S
GLENCOE        LGT RAIN  63  63  99 CALM      29.88F
FARIBAULT      CLOUDY    61  61 100 CALM      29.87F
OWATONNA       CLOUDY    61  61 100 CALM      29.89S
WASECA         CLOUDY    59  59 100 CALM      29.91R FOG
ALBERT LEA     CLOUDY    64  63  94 CALM      29.92R FOG
$$
MNZ078>079-086>088-094>096-181400-
   Southeast Minnesota

CITY           SKY/WX    TMP DP  RH WIND       PRES   REMARKS
ROCHESTER      PTSUNNY   60  59  96 N6        29.91S
RED WING       MOSUNNY   61  59  94 W3        29.87S FOG
STANTON        CLOUDY    61  58  92 CALM      29.88F
DODGE CENTER   CLOUDY    61  57  88 CALM      29.89F
WINONA         CLOUDY    63  55  77 W5        29.89R
AUSTIN         PTSUNNY   61  59  94 CALM      29.89S
PRESTON        MOSUNNY   60  56  88 W6        29.91S
$$
ABBREVIATIONS USED IN REMARKS
   TC - TEMPERATURES IN CELSIUS
  WCI - WIND CHILL INDEX
   HX - HEAT INDEX
  VSB - VISIBILITY
$$



USA.gov is the U.S. government's official web portal to all federal, state and local government web resources and services.